RH
68 68 67 67 59 58 57 52 50 49 43 39 36 33 30 26 24 23 24 25 29 28
62 63 60 59 62 58 58 59 56 52 47 41 34 32 27 27 26 23 23 24 24 25
66 65 64 65 67 67 71 65 55 51 45 42 37 32 28 27 27 26 26 24 23 25
71 69 69 73 70 65 63 62 58 52 47 37 33 32 29 26 26 27 27 27 26 27
73 78 71 68 70 67 56 52 47 42 35 30 30 30 30 30 27 28 28 28 28 30
76 73 67 67 64 60 57 52 44 38 32 32 35 34 34 34 34 31 28 26 28 27
73 71 72 75 75 66 60 49 40 38 39 43 44 44 43 39 36 34 32 31 30 28
79 77 73 69 76 64 49 43 46 49 49 49 47 47 48 48 44 41 39 33 30 29
78 79 73 69 66 60 51 51 52 54 56 54 54 52 51 48 48 44 39 37 37 33
84 81 74 68 67 62 59 58 58 60 59 58 54 53 51 50 51 49 45 44 41 36
90 86 77 72 66 64 62 61 59 57 58 58 56 56 52 50 48 47 49 47 42 38
95 87 78 69 70 68 66 64 60 59 58 57 51 51 47 46 41 44 46 47 49 51
92 87 76 71 73 76 69 65 62 58 58 51 53 49 44 43 46 52 54 54 51 50
85 82 76 77 82 74 68 69 63 59 50 51 51 45 42 46 53 57 55 51 45 42